DW8903 Weather Reports


time (UTC)temp
C
wind
direction
speed
KPH
gust
KPH
rain 1hr
cm
rain 24hr
cm
rain mn
cm
humidity
%
barometer
mb
20260506103029 11 318 4.8 11.3 0.00 0.00 0.00 33 1013.5
20260506101532 11 317 6.4 17.7 0.00 0.00 0.00 30 1013.4
20260506100031 11 277 6.4 16.1 0.00 0.00 0.00 32 1013.4
20260506094532 11 309 8.0 20.9 0.00 0.00 0.00 30 1013.3
20260506093023 11 319 8.0 17.7 0.00 0.00 0.00 33 1013.2
20260506091522 10 291 6.4 12.9 0.00 0.00 0.00 36 1013.2
20260506090019 10 296 4.8 16.1 0.00 0.00 0.00 38 1013.1
20260506084519 9 298 4.8 14.5 0.00 0.00 0.00 38 1013.1
20260506083034 10 291 4.8 16.1 0.00 0.00 0.00 38 1013.0
20260506081516 10 303 4.8 11.3 0.00 0.00 0.00 39 1013.0
20260506073010 9 319 4.8 17.7 0.00 0.00 0.00 47 1012.6
20260506071506 8 297 6.4 12.9 0.00 0.00 0.00 48 1012.5
20260506061554 7 311 1.6 12.9 0.00 0.00 0.00 60 1012.2
20260506044534 1 304 0.0 4.8 0.00 0.00 0.00 91 1011.3
20260506043027 0 324 1.6 4.8 0.00 0.00 0.00 91 1011.2
20260506041523 0 324 1.6 4.8 0.00 0.00 0.00 91 1011.0
20260506040033 0 312 0.0 6.4 0.00 0.00 0.00 91 1010.9
20260506034518 -1 294 1.6 4.8 0.00 0.00 0.00 91 1010.8
20260506033016 -2 321 1.6 6.4 0.00 0.00 0.00 90 1010.6
20260506031514 -2 324 1.6 8.0 0.00 0.00 0.00 89 1010.5
20260506030010 -2 273 0.0 3.2 0.00 0.00 0.00 89 1010.3
20260506024523 -2 254 1.6 4.8 0.00 0.00 0.00 89 1010.1
20260506023006 -2 218 0.0 3.2 0.00 0.00 0.00 88 1010.0
20260506021506 -2 279 0.0 1.6 0.00 0.00 0.00 88 1009.9
20260506020004 -2 263 0.0 4.8 0.00 0.00 0.00 87 1009.9
20260506014506 -2 263 0.0 3.2 0.00 0.00 0.00 86 1009.8
20260506013001 -2 281 0.0 3.2 0.00 0.00 0.00 86 1009.7
20260506011558 -2 290 0.0 3.2 0.00 0.00 0.00 84 1009.5
20260506010058 -2 276 0.0 3.2 0.00 0.00 0.00 83 1009.3
20260506004553 -1 237 0.0 4.8 0.00 0.00 0.00 83 1009.2
20260506003057 -1 238 0.0 3.2 0.00 0.00 0.00 83 1009.1
20260506001604 -1 233 0.0 4.8 0.00 0.00 0.00 83 1008.9
20260506000052 -1 258 0.0 4.8 0.00 0.00 0.00 84 1008.9
20260505234607 -1 259 1.6 6.4 0.00 0.00 0.00 85 1008.8
20260505233050 -1 259 1.6 4.8 0.00 0.00 0.00 85 1008.7
20260505231547 -1 274 3.2 4.8 0.00 0.00 0.00 83 1008.7
20260505230048 -1 292 1.6 8.0 0.00 0.00 0.00 84 1008.6
20260505224547 -1 252 1.6 8.0 0.00 0.00 0.00 85 1008.7
20260505223057 -1 267 1.6 4.8 0.00 0.00 0.00 84 1008.7
20260505221543 -1 274 1.6 4.8 0.00 0.00 0.00 81 1008.6
20260505220043 -1 266 0.0 6.4 0.00 0.00 0.00 79 1008.5
20260505214551 -1 250 0.0 3.2 0.00 0.03 0.00 79 1008.5
20260505213037 -1 250 0.0 3.2 0.00 0.03 0.00 79 1008.4
20260505211542 -1 289 0.0 3.2 0.00 0.03 0.00 79 1008.3
20260505210032 0 259 1.6 3.2 0.00 0.03 0.00 76 1008.3
20260505204528 0 255 0.0 3.2 0.00 0.05 0.03 73 1008.2
20260505203032 0 228 1.6 6.4 0.00 0.05 0.03 72 1008.0
20260505201522 0 289 0.0 3.2 0.00 0.05 0.03 72 1007.9
20260505200020 1 289 1.6 4.8 0.00 0.05 0.03 71 1007.8
20260505194518 1 280 1.6 4.8 0.00 0.05 0.03 72 1007.6
20260505193016 1 280 1.6 4.8 0.00 0.05 0.03 71 1007.6
20260505191513 2 279 1.6 3.2 0.00 0.05 0.03 71 1007.6
20260505190015 2 279 0.0 4.8 0.00 0.05 0.03 69 1007.3
20260505184508 3 263 0.0 3.2 0.00 0.05 0.03 67 1007.2
20260505183003 3 261 1.6 6.4 0.00 0.05 0.03 66 1007.1
20260505181600 3 243 1.6 4.8 0.00 0.05 0.03 65 1006.9
20260505180104 4 288 3.2 6.4 0.00 0.05 0.03 64 1006.7
20260505174555 5 308 3.2 8.0 0.00 0.05 0.03 62 1006.6
20260505173056 5 298 3.2 6.4 0.00 0.05 0.03 60 1006.5
20260505171556 5 292 3.2 6.4 0.00 0.05 0.03 62 1006.4
20260505170052 5 301 4.8 14.5 0.00 0.05 0.03 60 1006.4
20260505164551 6 302 4.8 6.4 0.00 0.05 0.03 56 1006.3
20260505163051 6 298 4.8 9.7 0.00 0.05 0.03 55 1006.2
20260505161549 6 300 4.8 11.3 0.00 0.05 0.03 56 1006.0
20260505153051 7 296 4.8 8.0 0.00 0.05 0.03 54 1005.8
20260505151548 8 296 8.0 14.5 0.00 0.05 0.03 51 1005.7
20260505124535 11 296 9.7 20.9 0.00 0.05 0.03 46 1004.7
20260505123034 10 299 4.8 17.7 0.00 0.05 0.03 46 1004.6
20260505121537 9 304 4.8 11.3 0.00 0.05 0.03 47 1004.4
20260505120031 10 304 4.8 12.9 0.00 0.05 0.03 44 1004.4
20260505114529 10 328 8.0 14.5 0.00 0.05 0.03 42 1004.2
20260505113038 10 324 9.7 22.5 0.00 0.05 0.03 47 1004.2
20260505111539 8 283 3.2 9.7 0.00 0.05 0.03 54 1004.2